Time,TemperatureF,DewpointF,PressureIn,WindDirection,WindDirectionDegrees,WindSpeedMPH,WindSpeedGustMPH,Humidity,HourlyPrecipIn,Conditions,Clouds,dailyrainin,SoftwareType,DateUTC
2013-01-27 00:00:00,8.5,-1.3,30.32,ESE,113,3.4,4.3,64,0.00,,,0.00,WUHU216HW,2013-01-27 05:00:00,
2013-01-27 00:03:00,8.3,-1.5,30.32,ESE,113,2.9,3.6,64,0.00,,,0.00,WUHU216HW,2013-01-27 05:03:00,
2013-01-27 00:08:00,7.9,-2.1,30.32,ESE,113,2.9,3.6,63,0.00,,,0.00,WUHU216HW,2013-01-27 05:08:00,
2013-01-27 00:13:00,7.4,-2.7,30.32,ESE,113,2.7,3.6,63,0.00,,,0.00,WUHU216HW,2013-01-27 05:13:00,
2013-01-27 00:18:00,7.2,-2.5,30.32,East,90,3.8,4.0,64,0.00,,,0.00,WUHU216HW,2013-01-27 05:18:00,
2013-01-27 00:23:00,7.0,-2.7,30.32,ESE,113,3.4,4.0,64,0.00,,,0.00,WUHU216HW,2013-01-27 05:23:00,
2013-01-27 00:28:00,7.2,-2.1,30.32,ESE,113,2.7,3.8,65,0.00,,,0.00,WUHU216HW,2013-01-27 05:28:00,
2013-01-27 00:33:00,7.2,-2.1,30.32,SE,135,3.1,3.4,65,0.00,,,0.00,WUHU216HW,2013-01-27 05:33:00,
2013-01-27 00:38:00,7.2,-2.1,30.32,ESE,113,2.9,3.4,65,0.00,,,0.00,WUHU216HW,2013-01-27 05:38:00,
2013-01-27 00:43:00,7.4,-2.0,30.32,ESE,113,2.5,3.4,65,0.00,,,0.00,WUHU216HW,2013-01-27 05:43:00,
2013-01-27 00:48:00,7.2,-2.1,30.32,East,90,2.7,4.0,65,0.00,,,0.00,WUHU216HW,2013-01-27 05:48:00,
2013-01-27 00:53:00,7.2,-1.9,30.32,ENE,68,2.9,4.0,66,0.00,,,0.00,WUHU216HW,2013-01-27 05:53:00,
2013-01-27 00:58:00,7.4,-1.0,30.33,NE,45,2.9,3.4,68,0.00,,,0.00,WUHU216HW,2013-01-27 05:58:00,
2013-01-27 01:03:00,7.9,-0.4,30.33,ENE,68,2.5,3.1,68,0.00,,,0.00,WUHU216HW,2013-01-27 06:03:00,
2013-01-27 01:08:00,8.5,0.4,30.33,ENE,68,1.6,3.8,69,0.00,,,0.00,WUHU216HW,2013-01-27 06:08:00,
2013-01-27 01:13:00,9.0,0.9,30.33,ENE,68,1.6,3.8,69,0.00,,,0.00,WUHU216HW,2013-01-27 06:13:00,
2013-01-27 01:18:00,9.4,0.9,30.34,NNW,338,0.7,2.5,68,0.00,,,0.00,WUHU216HW,2013-01-27 06:18:00,
2013-01-27 01:23:00,9.7,1.2,30.34,NNW,338,0.0,1.3,68,0.00,,,0.00,WUHU216HW,2013-01-27 06:23:00,
2013-01-27 01:28:00,10.1,1.5,30.34,NE,45,0.0,2.9,68,0.00,,,0.00,WUHU216HW,2013-01-27 06:28:00,
2013-01-27 01:33:00,10.4,1.9,30.34,WNW,293,4.7,4.7,68,0.00,,,0.00,WUHU216HW,2013-01-27 06:33:00,
2013-01-27 01:38:00,11.9,4.2,30.34,WNW,293,7.6,7.6,71,0.00,,,0.00,WUHU216HW,2013-01-27 06:38:00,
2013-01-27 01:43:00,12.4,4.8,30.34,West,270,3.4,7.6,71,0.00,,,0.00,WUHU216HW,2013-01-27 06:43:00,
2013-01-27 01:48:00,12.6,4.7,30.35,West,270,3.1,4.9,70,0.00,,,0.00,WUHU216HW,2013-01-27 06:48:00,
2013-01-27 01:53:00,12.6,4.3,30.35,West,270,0.2,3.6,69,0.00,,,0.00,WUHU216HW,2013-01-27 06:53:00,
2013-01-27 01:58:00,12.4,3.8,30.35,SE,135,1.8,2.0,68,0.00,,,0.00,WUHU216HW,2013-01-27 06:58:00,
2013-01-27 02:03:00,11.7,3.2,30.35,ESE,113,1.3,2.5,68,0.00,,,0.00,WUHU216HW,2013-01-27 07:03:00,
2013-01-27 02:08:00,11.2,2.3,30.35,ESE,113,1.8,3.6,67,0.00,,,0.00,WUHU216HW,2013-01-27 07:08:00,
2013-01-27 02:13:00,10.6,1.7,30.35,ESE,113,2.7,3.6,67,0.00,,,0.00,WUHU216HW,2013-01-27 07:13:00,
2013-01-27 02:18:00,10.4,1.5,30.35,ENE,68,1.1,2.7,67,0.00,,,0.00,WUHU216HW,2013-01-27 07:18:00,
2013-01-27 02:23:00,10.4,1.9,30.36,North,0,1.8,2.0,68,0.00,,,0.00,WUHU216HW,2013-01-27 07:23:00,
2013-01-27 02:28:00,10.8,2.5,30.36,WNW,293,2.7,2.9,69,0.00,,,0.00,WUHU216HW,2013-01-27 07:28:00,
2013-01-27 02:33:00,11.7,3.4,30.36,NNE,23,0.4,4.0,69,0.00,,,0.00,WUHU216HW,2013-01-27 07:33:00,
2013-01-27 02:38:00,12.2,4.0,30.36,NW,315,0.4,4.0,69,0.00,,,0.00,WUHU216HW,2013-01-27 07:38:00,
2013-01-27 02:43:00,12.4,3.8,30.36,East,90,0.4,2.5,68,0.00,,,0.00,WUHU216HW,2013-01-27 07:43:00,
2013-01-27 02:48:00,12.2,3.6,30.37,ENE,68,0.4,1.8,68,0.00,,,0.00,WUHU216HW,2013-01-27 07:48:00,
2013-01-27 02:53:00,11.9,3.2,30.37,East,90,0.4,2.5,68,0.00,,,0.00,WUHU216HW,2013-01-27 07:53:00,
2013-01-27 02:58:00,11.9,3.0,30.37,ESE,113,1.8,2.5,67,0.00,,,0.00,WUHU216HW,2013-01-27 07:58:00,
2013-01-27 03:03:00,11.2,2.3,30.37,ESE,113,2.2,2.2,67,0.00,,,0.00,WUHU216HW,2013-01-27 08:03:00,
2013-01-27 03:08:00,10.8,1.9,30.37,SSW,203,1.1,2.2,67,0.00,,,0.00,WUHU216HW,2013-01-27 08:08:00,
2013-01-27 03:13:00,10.8,2.3,30.37,NW,315,1.1,2.2,68,0.00,,,0.00,WUHU216HW,2013-01-27 08:13:00,
2013-01-27 03:18:00,11.3,2.8,30.37,NNW,338,0.4,2.2,68,0.00,,,0.00,WUHU216HW,2013-01-27 08:18:00,
2013-01-27 03:23:00,11.5,3.2,30.38,West,270,2.7,4.9,69,0.00,,,0.00,WUHU216HW,2013-01-27 08:23:00,
2013-01-27 03:28:00,11.2,2.9,30.38,West,270,0.9,4.9,69,0.00,,,0.00,WUHU216HW,2013-01-27 08:28:00,
2013-01-27 03:33:00,11.0,2.4,30.38,WSW,248,0.4,2.5,68,0.00,,,0.00,WUHU216HW,2013-01-27 08:33:00,
2013-01-27 03:38:00,10.4,1.9,30.38,ESE,113,1.1,1.1,68,0.00,,,0.00,WUHU216HW,2013-01-27 08:38:00,
2013-01-27 03:43:00,9.9,1.4,30.38,ESE,113,1.6,2.5,68,0.00,,,0.00,WUHU216HW,2013-01-27 08:43:00,
2013-01-27 03:48:00,9.5,1.1,30.38,ESE,113,2.7,2.7,68,0.00,,,0.00,WUHU216HW,2013-01-27 08:48:00,
2013-01-27 03:53:00,9.2,0.7,30.38,ESE,113,2.5,2.7,68,0.00,,,0.00,WUHU216HW,2013-01-27 08:53:00,
2013-01-27 03:58:00,9.0,0.5,30.38,SE,135,3.1,3.4,68,0.00,,,0.00,WUHU216HW,2013-01-27 08:58:00,
2013-01-27 04:03:00,8.3,-0.2,30.39,ESE,113,2.7,3.8,68,0.00,,,0.00,WUHU216HW,2013-01-27 09:03:00,
2013-01-27 04:08:00,8.1,-0.3,30.39,ESE,113,1.8,3.8,68,0.00,,,0.00,WUHU216HW,2013-01-27 09:08:00,
2013-01-27 04:13:00,7.7,-0.4,30.39,ESE,113,0.7,2.2,69,0.00,,,0.00,WUHU216HW,2013-01-27 09:13:00,
2013-01-27 04:18:00,7.9,-0.2,30.39,ESE,113,0.7,0.9,69,0.00,,,0.00,WUHU216HW,2013-01-27 09:18:00,
2013-01-27 04:23:00,8.3,0.5,30.39,WSW,248,1.1,1.1,70,0.00,,,0.00,WUHU216HW,2013-01-27 09:23:00,
2013-01-27 04:28:00,8.5,0.7,30.39,SW,225,1.1,1.1,70,0.00,,,0.00,WUHU216HW,2013-01-27 09:28:00,
2013-01-27 04:33:00,8.8,1.1,30.39,West,270,0.7,1.1,70,0.00,,,0.00,WUHU216HW,2013-01-27 09:33:00,
2013-01-27 04:38:00,9.2,1.4,30.39,NNE,23,0.0,1.1,70,0.00,,,0.00,WUHU216HW,2013-01-27 09:38:00,
2013-01-27 04:43:00,9.0,1.3,30.39,North,0,0.4,0.9,70,0.00,,,0.00,WUHU216HW,2013-01-27 09:43:00,
2013-01-27 04:48:00,9.0,1.3,30.39,ENE,68,0.4,0.4,70,0.00,,,0.00,WUHU216HW,2013-01-27 09:48:00,
2013-01-27 04:53:00,9.0,1.3,30.39,ENE,68,0.9,1.1,70,0.00,,,0.00,WUHU216HW,2013-01-27 09:53:00,
2013-01-27 04:58:00,9.0,0.9,30.39,SSE,158,3.1,3.1,69,0.00,,,0.00,WUHU216HW,2013-01-27 09:58:00,
2013-01-27 05:03:00,8.1,-0.3,30.39,SE,135,1.8,4.5,68,0.00,,,0.00,WUHU216HW,2013-01-27 10:03:00,
2013-01-27 05:08:00,7.2,-1.2,30.39,ESE,113,2.2,4.5,68,0.00,,,0.00,WUHU216HW,2013-01-27 10:08:00,
2013-01-27 05:13:00,6.1,-2.2,30.40,SE,135,3.4,3.8,68,0.00,,,0.00,WUHU216HW,2013-01-27 10:13:00,
2013-01-27 05:18:00,5.2,-3.5,30.40,SE,135,2.5,4.7,67,0.00,,,0.00,WUHU216HW,2013-01-27 10:18:00,
2013-01-27 05:23:00,4.9,-3.5,30.40,SE,135,3.6,4.7,68,0.00,,,0.00,WUHU216HW,2013-01-27 10:23:00,
2013-01-27 05:28:00,4.7,-3.3,30.40,SSE,158,4.3,4.5,69,0.00,,,0.00,WUHU216HW,2013-01-27 10:28:00,
2013-01-27 05:33:00,4.5,-3.5,30.41,SE,135,1.8,4.5,69,0.00,,,0.00,WUHU216HW,2013-01-27 10:33:00,
2013-01-27 05:38:00,4.3,-3.7,30.41,SE,135,2.0,2.9,69,0.00,,,0.00,WUHU216HW,2013-01-27 10:38:00,
2013-01-27 05:43:00,4.1,-3.9,30.41,SE,135,2.7,2.9,69,0.00,,,0.00,WUHU216HW,2013-01-27 10:43:00,
2013-01-27 05:48:00,4.1,-3.9,30.42,SE,135,2.7,2.9,69,0.00,,,0.00,WUHU216HW,2013-01-27 10:48:00,
2013-01-27 05:53:00,4.0,-3.9,30.42,SE,135,2.5,3.1,69,0.00,,,0.00,WUHU216HW,2013-01-27 10:53:00,
2013-01-27 05:58:00,3.6,-4.3,30.42,SE,135,3.1,3.4,69,0.00,,,0.00,WUHU216HW,2013-01-27 10:58:00,
2013-01-27 06:03:00,3.2,-4.3,30.42,SE,135,3.8,4.7,70,0.00,,,0.00,WUHU216HW,2013-01-27 11:03:00,
2013-01-27 06:08:00,2.9,-4.4,30.43,SE,135,4.0,4.7,71,0.00,,,0.00,WUHU216HW,2013-01-27 11:08:00,
2013-01-27 06:13:00,2.7,-4.6,30.43,SE,135,2.5,4.5,71,0.00,,,0.00,WUHU216HW,2013-01-27 11:13:00,
2013-01-27 06:18:00,2.5,-4.8,30.43,SE,135,1.3,2.9,71,0.00,,,0.00,WUHU216HW,2013-01-27 11:18:00,
2013-01-27 06:23:00,2.3,-4.9,30.43,SE,135,2.7,2.9,71,0.00,,,0.00,WUHU216HW,2013-01-27 11:23:00,
2013-01-27 06:28:00,2.3,-4.9,30.43,SE,135,1.3,2.7,71,0.00,,,0.00,WUHU216HW,2013-01-27 11:28:00,
2013-01-27 06:33:00,2.2,-5.1,30.43,East,90,2.5,2.5,71,0.00,,,0.00,WUHU216HW,2013-01-27 11:33:00,
2013-01-27 06:38:00,2.2,-5.1,30.44,ESE,113,1.8,2.5,71,0.00,,,0.00,WUHU216HW,2013-01-27 11:38:00,
2013-01-27 06:43:00,1.8,-5.5,30.44,SE,135,1.1,2.0,71,0.00,,,0.00,WUHU216HW,2013-01-27 11:43:00,
2013-01-27 06:48:00,1.6,-5.7,30.44,SSW,203,0.0,2.0,71,0.00,,,0.00,WUHU216HW,2013-01-27 11:48:00,
2013-01-27 06:53:00,1.6,-5.7,30.45,ESE,113,1.1,2.0,71,0.00,,,0.00,WUHU216HW,2013-01-27 11:53:00,
2013-01-27 06:58:00,1.8,-5.5,30.45,SE,135,2.5,2.5,71,0.00,,,0.00,WUHU216HW,2013-01-27 11:58:00,
2013-01-27 07:03:00,1.8,-5.2,30.45,SE,135,1.8,2.5,72,0.00,,,0.00,WUHU216HW,2013-01-27 12:03:00,
2013-01-27 07:08:00,2.0,-5.0,30.46,SSE,158,2.7,2.7,72,0.00,,,0.00,WUHU216HW,2013-01-27 12:08:00,
2013-01-27 07:13:00,1.8,-5.5,30.46,SSE,158,2.0,2.7,71,0.00,,,0.00,WUHU216HW,2013-01-27 12:13:00,
2013-01-27 07:18:00,1.8,-5.5,30.46,SW,225,0.0,2.7,71,0.00,,,0.00,WUHU216HW,2013-01-27 12:18:00,
2013-01-27 07:23:00,1.4,-5.8,30.47,SE,135,1.1,1.8,71,0.00,,,0.00,WUHU216HW,2013-01-27 12:23:00,
2013-01-27 07:28:00,1.4,-5.8,30.47,SSE,158,0.0,1.6,71,0.00,,,0.00,WUHU216HW,2013-01-27 12:28:00,
2013-01-27 07:33:00,1.4,-5.6,30.47,SE,135,1.6,1.6,72,0.00,,,0.00,WUHU216HW,2013-01-27 12:33:00,
2013-01-27 07:38:00,1.6,-5.4,30.47,SE,135,1.1,1.6,72,0.00,,,0.00,WUHU216HW,2013-01-27 12:38:00,
2013-01-27 07:43:00,1.8,-5.2,30.47,SE,135,1.8,2.5,72,0.00,,,0.00,WUHU216HW,2013-01-27 12:43:00,
2013-01-27 07:48:00,1.8,-5.2,30.48,SE,135,1.8,2.5,72,0.00,,,0.00,WUHU216HW,2013-01-27 12:48:00,
2013-01-27 07:53:00,1.8,-5.2,30.48,SE,135,1.8,2.9,72,0.00,,,0.00,WUHU216HW,2013-01-27 12:53:00,
2013-01-27 07:58:00,2.2,-4.9,30.48,SE,135,1.8,2.9,72,0.00,,,0.00,WUHU216HW,2013-01-27 12:58:00,
2013-01-27 08:03:00,2.5,-4.2,30.49,SE,135,2.2,2.2,73,0.00,,,0.00,WUHU216HW,2013-01-27 13:03:00,
2013-01-27 08:08:00,2.5,-4.2,30.49,SE,135,2.2,2.2,73,0.00,,,0.00,WUHU216HW,2013-01-27 13:08:00,
2013-01-27 08:13:00,3.1,-3.7,30.49,SE,135,1.1,2.2,73,0.00,,,0.00,WUHU216HW,2013-01-27 13:13:00,
2013-01-27 08:18:00,3.2,-3.5,30.49,SE,135,1.3,2.2,73,0.00,,,0.00,WUHU216HW,2013-01-27 13:18:00,
2013-01-27 08:23:00,4.0,-3.1,30.49,SE,135,1.8,2.7,72,0.00,,,0.00,WUHU216HW,2013-01-27 13:23:00,
2013-01-27 08:28:00,4.1,-2.7,30.49,SE,135,1.6,2.7,73,0.00,,,0.00,WUHU216HW,2013-01-27 13:28:00,
2013-01-27 08:33:00,4.7,-2.1,30.50,SE,135,1.3,1.8,73,0.00,,,0.00,WUHU216HW,2013-01-27 13:33:00,
2013-01-27 08:38:00,5.2,-1.6,30.50,SE,135,0.9,1.8,73,0.00,,,0.00,WUHU216HW,2013-01-27 13:38:00,
2013-01-27 08:43:00,5.8,-1.1,30.50,ENE,68,0.0,1.1,73,0.00,,,0.00,WUHU216HW,2013-01-27 13:43:00,
2013-01-27 08:48:00,6.3,-0.5,30.50,NNW,338,0.4,0.9,73,0.00,,,0.00,WUHU216HW,2013-01-27 13:48:00,
2013-01-27 08:53:00,6.8,-0.4,30.50,ENE,68,1.8,1.8,72,0.00,,,0.00,WUHU216HW,2013-01-27 13:53:00,
2013-01-27 08:58:00,7.6,0.4,30.50,East,90,1.6,2.2,72,0.00,,,0.00,WUHU216HW,2013-01-27 13:58:00,
2013-01-27 09:03:00,8.3,1.1,30.50,SW,225,0.0,2.2,72,0.00,,,0.00,WUHU216HW,2013-01-27 14:03:00,
2013-01-27 09:08:00,8.8,1.4,30.51,ESE,113,0.9,1.3,71,0.00,,,0.00,WUHU216HW,2013-01-27 14:08:00,
2013-01-27 09:13:00,9.4,1.8,30.51,ENE,68,0.2,2.2,71,0.00,,,0.00,WUHU216HW,2013-01-27 14:13:00,
2013-01-27 09:18:00,9.9,2.4,30.51,ENE,68,2.2,2.2,71,0.00,,,0.00,WUHU216HW,2013-01-27 14:18:00,
2013-01-27 09:23:00,10.4,2.8,30.51,ESE,113,1.1,2.2,71,0.00,,,0.00,WUHU216HW,2013-01-27 14:23:00,
2013-01-27 09:28:00,10.8,3.2,30.51,ENE,68,0.9,2.0,71,0.00,,,0.00,WUHU216HW,2013-01-27 14:28:00,
2013-01-27 09:33:00,11.3,3.4,30.52,ESE,113,1.8,3.1,70,0.00,,,0.00,WUHU216HW,2013-01-27 14:33:00,
2013-01-27 09:38:00,11.9,3.6,30.52,ENE,68,1.1,3.1,69,0.00,,,0.00,WUHU216HW,2013-01-27 14:38:00,
2013-01-27 09:43:00,12.2,3.6,30.52,ENE,68,2.2,2.5,68,0.00,,,0.00,WUHU216HW,2013-01-27 14:43:00,
2013-01-27 09:48:00,12.6,4.0,30.52,ENE,68,2.5,2.7,68,0.00,,,0.00,WUHU216HW,2013-01-27 14:48:00,
2013-01-27 09:53:00,12.8,3.9,30.52,SE,135,0.7,2.7,67,0.00,,,0.00,WUHU216HW,2013-01-27 14:53:00,
2013-01-27 09:58:00,13.0,4.3,30.52,NNE,23,0.0,2.5,68,0.00,,,0.00,WUHU216HW,2013-01-27 14:58:00,
2013-01-27 10:03:00,13.0,3.7,30.52,West,270,1.1,2.5,66,0.00,,,0.00,WUHU216HW,2013-01-27 15:03:00,
2013-01-27 10:08:00,13.0,3.7,30.52,SSW,203,1.1,1.1,66,0.00,,,0.00,WUHU216HW,2013-01-27 15:08:00,
2013-01-27 10:13:00,13.3,4.1,30.52,West,270,0.0,1.6,66,0.00,,,0.00,WUHU216HW,2013-01-27 15:13:00,
2013-01-27 10:18:00,13.3,3.7,30.52,SW,225,0.7,1.6,65,0.00,,,0.00,WUHU216HW,2013-01-27 15:18:00,
2013-01-27 10:23:00,13.3,3.3,30.52,WSW,248,2.2,2.2,64,0.00,,,0.00,WUHU216HW,2013-01-27 15:23:00,
2013-01-27 10:28:00,13.3,3.3,30.53,WSW,248,1.6,3.4,64,0.00,,,0.00,WUHU216HW,2013-01-27 15:28:00,
2013-01-27 10:33:00,13.0,3.0,30.53,WSW,248,3.4,3.4,64,0.00,,,0.00,WUHU216HW,2013-01-27 15:33:00,
2013-01-27 10:38:00,13.0,3.0,30.52,WSW,248,1.8,3.4,64,0.00,,,0.00,WUHU216HW,2013-01-27 15:38:00,
2013-01-27 10:43:00,13.3,3.7,30.52,West,270,2.9,3.4,65,0.00,,,0.00,WUHU216HW,2013-01-27 15:43:00,
2013-01-27 10:48:00,13.7,4.1,30.52,West,270,2.0,3.4,65,0.00,,,0.00,WUHU216HW,2013-01-27 15:48:00,
2013-01-27 10:53:00,14.0,4.4,30.52,West,270,1.8,2.7,65,0.00,,,0.00,WUHU216HW,2013-01-27 15:53:00,
2013-01-27 10:58:00,14.6,4.6,30.52,West,270,2.0,2.0,64,0.00,,,0.00,WUHU216HW,2013-01-27 15:58:00,
2013-01-27 11:03:00,14.6,4.6,30.52,West,270,1.8,2.5,64,0.00,,,0.00,WUHU216HW,2013-01-27 16:03:00,
2013-01-27 11:08:00,14.8,4.7,30.52,West,270,1.8,2.5,64,0.00,,,0.00,WUHU216HW,2013-01-27 16:08:00,
2013-01-27 11:13:00,15.1,5.0,30.52,West,270,2.7,2.7,64,0.00,,,0.00,WUHU216HW,2013-01-27 16:13:00,
2013-01-27 11:18:00,15.1,4.7,30.52,WNW,293,2.2,2.7,63,0.00,,,0.00,WUHU216HW,2013-01-27 16:18:00,
2013-01-27 11:23:00,15.1,4.7,30.52,WNW,293,1.8,2.5,63,0.00,,,0.00,WUHU216HW,2013-01-27 16:23:00,
2013-01-27 11:28:00,15.1,4.7,30.52,NW,315,1.8,2.0,63,0.00,,,0.00,WUHU216HW,2013-01-27 16:28:00,
2013-01-27 11:33:00,15.1,4.3,30.52,West,270,2.5,2.7,62,0.00,,,0.00,WUHU216HW,2013-01-27 16:33:00,
2013-01-27 11:38:00,15.5,4.7,30.52,WNW,293,1.3,2.7,62,0.00,,,0.00,WUHU216HW,2013-01-27 16:38:00,
2013-01-27 11:43:00,15.5,4.7,30.52,NW,315,1.1,2.5,62,0.00,,,0.00,WUHU216HW,2013-01-27 16:43:00,
2013-01-27 11:48:00,15.5,4.7,30.52,NW,315,1.3,2.5,62,0.00,,,0.00,WUHU216HW,2013-01-27 16:48:00,
2013-01-27 11:53:00,15.8,5.1,30.52,WNW,293,2.7,2.7,62,0.00,,,0.00,WUHU216HW,2013-01-27 16:53:00,
2013-01-27 11:58:00,16.2,5.4,30.52,West,270,2.5,2.7,62,0.00,,,0.00,WUHU216HW,2013-01-27 16:58:00,
2013-01-27 12:03:00,16.4,5.6,30.52,West,270,2.0,2.5,62,0.00,,,0.00,WUHU216HW,2013-01-27 17:03:00,
2013-01-27 12:08:00,16.2,5.1,30.51,NW,315,2.7,3.1,61,0.00,,,0.00,WUHU216HW,2013-01-27 17:08:00,
2013-01-27 12:13:00,16.2,5.1,30.51,West,270,1.6,3.1,61,0.00,,,0.00,WUHU216HW,2013-01-27 17:13:00,
2013-01-27 12:18:00,16.2,5.1,30.51,WNW,293,2.5,3.4,61,0.00,,,0.00,WUHU216HW,2013-01-27 17:18:00,
2013-01-27 12:23:00,16.2,5.1,30.51,WNW,293,2.5,3.4,61,0.00,,,0.00,WUHU216HW,2013-01-27 17:23:00,
2013-01-27 12:28:00,16.4,5.2,30.51,NNW,338,2.5,3.4,61,0.00,,,0.00,WUHU216HW,2013-01-27 17:28:00,
2013-01-27 12:33:00,16.6,5.4,30.51,WNW,293,2.9,4.0,61,0.00,,,0.00,WUHU216HW,2013-01-27 17:33:00,
2013-01-27 12:38:00,16.4,5.2,30.50,NW,315,2.5,4.0,61,0.00,,,0.00,WUHU216HW,2013-01-27 17:38:00,
2013-01-27 12:43:00,16.4,5.2,30.50,NW,315,3.8,3.8,61,0.00,,,0.00,WUHU216HW,2013-01-27 17:43:00,
2013-01-27 12:48:00,16.4,5.2,30.50,NW,315,2.2,4.0,61,0.00,,,0.00,WUHU216HW,2013-01-27 17:48:00,
2013-01-27 12:53:00,16.4,5.2,30.50,West,270,1.8,4.0,61,0.00,,,0.00,WUHU216HW,2013-01-27 17:53:00,
2013-01-27 12:58:00,16.9,5.8,30.50,West,270,2.5,3.4,61,0.00,,,0.00,WUHU216HW,2013-01-27 17:58:00,
2013-01-27 13:03:00,17.5,6.3,30.50,WNW,293,3.1,3.1,61,0.00,,,0.00,WUHU216HW,2013-01-27 18:03:00,
2013-01-27 13:08:00,17.6,6.1,30.50,NW,315,3.4,3.4,60,0.00,,,0.00,WUHU216HW,2013-01-27 18:08:00,
2013-01-27 13:13:00,17.5,5.9,30.50,NW,315,2.7,3.4,60,0.00,,,0.00,WUHU216HW,2013-01-27 18:13:00,
2013-01-27 13:18:00,17.3,5.4,30.50,NW,315,2.9,4.0,59,0.00,,,0.00,WUHU216HW,2013-01-27 18:18:00,
2013-01-27 13:23:00,17.5,5.6,30.50,NW,315,2.5,4.0,59,0.00,,,0.00,WUHU216HW,2013-01-27 18:23:00,
2013-01-27 13:28:00,17.6,5.8,30.49,WNW,293,2.0,3.1,59,0.00,,,0.00,WUHU216HW,2013-01-27 18:28:00,
2013-01-27 13:33:00,17.5,5.6,30.49,NW,315,2.0,3.1,59,0.00,,,0.00,WUHU216HW,2013-01-27 18:33:00,
2013-01-27 13:38:00,17.6,5.8,30.49,NW,315,1.6,2.7,59,0.00,,,0.00,WUHU216HW,2013-01-27 18:38:00,
2013-01-27 13:43:00,17.6,5.8,30.49,NW,315,2.5,2.7,59,0.00,,,0.00,WUHU216HW,2013-01-27 18:43:00,
2013-01-27 13:48:00,17.6,5.3,30.49,WNW,293,2.5,2.5,58,0.00,,,0.00,WUHU216HW,2013-01-27 18:48:00,
2013-01-27 13:53:00,18.2,6.2,30.49,NW,315,1.8,2.5,59,0.00,,,0.00,WUHU216HW,2013-01-27 18:53:00,
2013-01-27 13:58:00,18.7,6.7,30.49,West,270,1.6,1.8,59,0.00,,,0.00,WUHU216HW,2013-01-27 18:58:00,
2013-01-27 14:03:00,19.1,6.2,30.49,West,270,1.6,2.0,57,0.00,,,0.00,WUHU216HW,2013-01-27 19:03:00,
2013-01-27 14:08:00,19.1,5.0,30.49,West,270,2.2,2.7,54,0.00,,,0.00,WUHU216HW,2013-01-27 19:08:00,
2013-01-27 14:13:00,19.1,5.4,30.50,WSW,248,2.7,2.7,55,0.00,,,0.00,WUHU216HW,2013-01-27 19:13:00,
2013-01-27 14:18:00,19.1,6.2,30.50,West,270,3.4,3.4,57,0.00,,,0.00,WUHU216HW,2013-01-27 19:18:00,
2013-01-27 14:23:00,19.1,6.2,30.50,West,270,2.7,3.4,57,0.00,,,0.00,WUHU216HW,2013-01-27 19:23:00,
2013-01-27 14:28:00,19.1,6.2,30.50,West,270,2.5,3.4,57,0.00,,,0.00,WUHU216HW,2013-01-27 19:28:00,
2013-01-27 14:33:00,19.3,5.6,30.50,WSW,248,2.5,3.4,55,0.00,,,0.00,WUHU216HW,2013-01-27 19:33:00,
2013-01-27 14:38:00,19.4,5.8,30.50,West,270,2.2,3.4,55,0.00,,,0.00,WUHU216HW,2013-01-27 19:38:00,
2013-01-27 14:43:00,19.6,6.0,30.50,WNW,293,2.9,2.9,55,0.00,,,0.00,WUHU216HW,2013-01-27 19:43:00,
2013-01-27 14:48:00,19.4,6.6,30.49,NW,315,3.8,3.8,57,0.00,,,0.00,WUHU216HW,2013-01-27 19:48:00,
2013-01-27 14:53:00,19.4,6.6,30.49,NW,315,3.1,4.0,57,0.00,,,0.00,WUHU216HW,2013-01-27 19:53:00,
2013-01-27 14:58:00,19.4,6.1,30.49,WNW,293,0.4,4.0,56,0.00,,,0.00,WUHU216HW,2013-01-27 19:58:00,
2013-01-27 15:03:00,19.6,6.3,30.49,WNW,293,2.2,4.0,56,0.00,,,0.00,WUHU216HW,2013-01-27 20:03:00,
2013-01-27 15:08:00,19.8,6.5,30.49,NW,315,5.1,5.1,56,0.00,,,0.00,WUHU216HW,2013-01-27 20:08:00,
2013-01-27 15:13:00,19.6,6.3,30.49,NNW,338,4.5,5.1,56,0.00,,,0.00,WUHU216HW,2013-01-27 20:13:00,
2013-01-27 15:18:00,19.6,6.3,30.49,NNW,338,2.9,4.5,56,0.00,,,0.00,WUHU216HW,2013-01-27 20:18:00,
2013-01-27 15:23:00,19.8,6.5,30.49,NW,315,1.3,4.5,56,0.00,,,0.00,WUHU216HW,2013-01-27 20:23:00,
2013-01-27 15:28:00,20.3,6.7,30.50,NW,315,3.4,5.1,55,0.00,,,0.00,WUHU216HW,2013-01-27 20:28:00,
2013-01-27 15:33:00,21.2,7.5,30.50,NW,315,3.6,5.1,55,0.00,,,0.00,WUHU216HW,2013-01-27 20:33:00,
2013-01-27 15:38:00,22.3,7.7,30.50,WNW,293,5.6,6.3,53,0.00,,,0.00,WUHU216HW,2013-01-27 20:38:00,
2013-01-27 15:43:00,22.7,8.0,30.50,NW,315,3.4,6.3,53,0.00,,,0.00,WUHU216HW,2013-01-27 20:43:00,
2013-01-27 15:48:00,22.9,7.8,30.50,NNW,338,3.4,5.4,52,0.00,,,0.00,WUHU216HW,2013-01-27 20:48:00,
2013-01-27 15:53:00,22.7,7.2,30.50,NW,315,2.9,4.7,51,0.00,,,0.00,WUHU216HW,2013-01-27 20:53:00,
2013-01-27 15:58:00,22.5,7.5,30.51,West,270,1.6,4.0,52,0.00,,,0.00,WUHU216HW,2013-01-27 20:58:00,
2013-01-27 16:03:00,23.0,8.0,30.51,NW,315,1.8,2.9,52,0.00,,,0.00,WUHU216HW,2013-01-27 21:03:00,
2013-01-27 16:08:00,24.3,9.2,30.51,NNW,338,0.2,2.5,52,0.00,,,0.00,WUHU216HW,2013-01-27 21:08:00,
2013-01-27 16:13:00,26.3,11.0,30.51,NNE,23,0.7,1.1,52,0.00,,,0.00,WUHU216HW,2013-01-27 21:13:00,
2013-01-27 16:18:00,27.4,11.2,30.51,NNE,23,0.4,1.1,50,0.00,,,0.00,WUHU216HW,2013-01-27 21:18:00,
2013-01-27 16:23:00,28.4,12.7,30.51,NE,45,0.2,0.9,51,0.00,,,0.00,WUHU216HW,2013-01-27 21:23:00,
2013-01-27 16:28:00,29.2,12.9,30.51,East,90,0.7,1.3,50,0.00,,,0.00,WUHU216HW,2013-01-27 21:28:00,
2013-01-27 16:33:00,28.4,11.3,30.51,ENE,68,2.5,2.5,48,0.00,,,0.00,WUHU216HW,2013-01-27 21:33:00,
2013-01-27 16:38:00,26.8,9.6,30.51,ENE,68,1.1,2.5,48,0.00,,,0.00,WUHU216HW,2013-01-27 21:38:00,
2013-01-27 16:43:00,25.4,8.4,30.51,NE,45,0.7,2.0,48,0.00,,,0.00,WUHU216HW,2013-01-27 21:43:00,
2013-01-27 16:48:00,24.3,7.4,30.51,ENE,68,0.4,1.6,48,0.00,,,0.00,WUHU216HW,2013-01-27 21:48:00,
2013-01-27 16:53:00,23.0,6.2,30.50,ENE,68,1.3,1.3,48,0.00,,,0.00,WUHU216HW,2013-01-27 21:53:00,
2013-01-27 16:58:00,21.6,4.9,30.50,East,90,1.6,1.6,48,0.00,,,0.00,WUHU216HW,2013-01-27 21:58:00,
2013-01-27 17:03:00,20.7,4.4,30.51,East,90,0.2,1.6,49,0.00,,,0.00,WUHU216HW,2013-01-27 22:03:00,
2013-01-27 17:08:00,20.0,4.2,30.51,ENE,68,0.7,1.1,50,0.00,,,0.00,WUHU216HW,2013-01-27 22:08:00,
2013-01-27 17:13:00,19.4,3.8,30.51,ENE,68,1.1,1.1,50,0.00,,,0.00,WUHU216HW,2013-01-27 22:13:00,
2013-01-27 17:18:00,18.9,3.3,30.52,ENE,68,1.1,1.1,50,0.00,,,0.00,WUHU216HW,2013-01-27 22:18:00,
2013-01-27 17:23:00,18.2,3.1,30.52,ENE,68,1.1,1.3,51,0.00,,,0.00,WUHU216HW,2013-01-27 22:23:00,
2013-01-27 17:28:00,17.6,2.5,30.52,ENE,68,0.7,1.3,51,0.00,,,0.00,WUHU216HW,2013-01-27 22:28:00,
2013-01-27 17:33:00,17.3,2.3,30.52,ENE,68,0.4,1.3,51,0.00,,,0.00,WUHU216HW,2013-01-27 22:33:00,
2013-01-27 17:38:00,16.9,2.3,30.53,WSW,248,1.1,1.3,52,0.00,,,0.00,WUHU216HW,2013-01-27 22:38:00,
2013-01-27 17:43:00,16.6,2.0,30.53,West,270,0.0,1.3,52,0.00,,,0.00,WUHU216HW,2013-01-27 22:43:00,
2013-01-27 17:48:00,16.4,2.2,30.53,NNW,338,0.0,1.3,53,0.00,,,0.00,WUHU216HW,2013-01-27 22:48:00,
2013-01-27 17:53:00,16.2,2.0,30.53,SE,135,0.0,1.3,53,0.00,,,0.00,WUHU216HW,2013-01-27 22:53:00,
2013-01-27 17:58:00,16.2,2.4,30.54,West,270,0.0,1.1,54,0.00,,,0.00,WUHU216HW,2013-01-27 22:58:00,
2013-01-27 18:03:00,16.0,2.3,30.53,SW,225,0.0,0.4,54,0.00,,,0.00,WUHU216HW,2013-01-27 23:03:00,
2013-01-27 18:08:00,16.0,2.6,30.53,East,90,0.7,1.1,55,0.00,,,0.00,WUHU216HW,2013-01-27 23:08:00,
2013-01-27 18:13:00,15.8,2.8,30.53,ESE,113,1.3,1.3,56,0.00,,,0.00,WUHU216HW,2013-01-27 23:13:00,
2013-01-27 18:18:00,15.8,2.8,30.52,East,90,0.2,1.3,56,0.00,,,0.00,WUHU216HW,2013-01-27 23:18:00,
2013-01-27 18:23:00,15.7,2.6,30.52,ESE,113,0.0,0.2,56,0.00,,,0.00,WUHU216HW,2013-01-27 23:23:00,
2013-01-27 18:28:00,15.7,3.1,30.52,ESE,113,1.1,1.1,57,0.00,,,0.00,WUHU216HW,2013-01-27 23:28:00,
2013-01-27 18:33:00,15.5,2.9,30.52,East,90,0.0,1.1,57,0.00,,,0.00,WUHU216HW,2013-01-27 23:33:00,
2013-01-27 18:38:00,15.1,2.5,30.52,West,270,0.9,0.9,57,0.00,,,0.00,WUHU216HW,2013-01-27 23:38:00,
2013-01-27 18:43:00,14.9,2.7,30.53,WSW,248,1.8,1.8,58,0.00,,,0.00,WUHU216HW,2013-01-27 23:43:00,
2013-01-27 18:48:00,14.8,2.6,30.53,West,270,0.0,1.8,58,0.00,,,0.00,WUHU216HW,2013-01-27 23:48:00,
2013-01-27 18:53:00,14.8,2.6,30.53,West,270,0.0,1.1,58,0.00,,,0.00,WUHU216HW,2013-01-27 23:53:00,
2013-01-27 18:58:00,14.6,2.4,30.53,SE,135,0.0,0.2,58,0.00,,,0.00,WUHU216HW,2013-01-27 23:58:00,
2013-01-27 19:03:00,14.6,2.4,30.53,SW,225,0.0,0.2,58,0.00,,,0.00,WUHU216HW,2013-01-28 00:03:00,
2013-01-27 19:08:00,14.4,2.3,30.52,WSW,248,0.2,0.4,58,0.00,,,0.00,WUHU216HW,2013-01-28 00:08:00,
2013-01-27 19:13:00,14.4,2.3,30.52,WSW,248,0.4,1.1,58,0.00,,,0.00,WUHU216HW,2013-01-28 00:13:00,
2013-01-27 19:18:00,14.2,2.1,30.52,WSW,248,0.0,1.1,58,0.00,,,0.00,WUHU216HW,2013-01-28 00:18:00,
2013-01-27 19:23:00,14.2,2.1,30.52,WSW,248,0.0,0.7,58,0.00,,,0.00,WUHU216HW,2013-01-28 00:23:00,
2013-01-27 19:28:00,14.0,1.9,30.52,WSW,248,0.0,0.7,58,0.00,,,0.00,WUHU216HW,2013-01-28 00:28:00,
2013-01-27 19:33:00,14.0,2.4,30.52,East,90,0.7,0.9,59,0.00,,,0.00,WUHU216HW,2013-01-28 00:33:00,
2013-01-27 19:38:00,13.9,2.2,30.52,East,90,0.7,0.9,59,0.00,,,0.00,WUHU216HW,2013-01-28 00:38:00,
2013-01-27 19:43:00,13.7,2.0,30.52,East,90,1.1,1.1,59,0.00,,,0.00,WUHU216HW,2013-01-28 00:43:00,
2013-01-27 19:48:00,13.5,1.8,30.52,East,90,0.4,1.1,59,0.00,,,0.00,WUHU216HW,2013-01-28 00:48:00,
2013-01-27 19:53:00,13.3,1.6,30.52,East,90,0.2,0.9,59,0.00,,,0.00,WUHU216HW,2013-01-28 00:53:00,
2013-01-27 19:58:00,13.3,1.6,30.51,East,90,0.0,0.4,59,0.00,,,0.00,WUHU216HW,2013-01-28 00:58:00,
2013-01-27 20:03:00,13.1,1.5,30.51,ESE,113,0.7,0.7,59,0.00,,,0.00,WUHU216HW,2013-01-28 01:03:00,
2013-01-27 20:08:00,12.8,1.1,30.50,ESE,113,0.7,0.9,59,0.00,,,0.00,WUHU216HW,2013-01-28 01:08:00,
2013-01-27 20:13:00,12.6,1.3,30.50,ESE,113,0.4,1.1,60,0.00,,,0.00,WUHU216HW,2013-01-28 01:13:00,
2013-01-27 20:18:00,12.2,0.9,30.50,NNE,23,0.0,1.1,60,0.00,,,0.00,WUHU216HW,2013-01-28 01:18:00,
2013-01-27 20:23:00,12.1,0.7,30.50,NNE,23,0.0,0.2,60,0.00,,,0.00,WUHU216HW,2013-01-28 01:23:00,
2013-01-27 20:28:00,11.9,0.5,30.50,NNE,23,0.0,0.0,60,0.00,,,0.00,WUHU216HW,2013-01-28 01:28:00,
2013-01-27 20:33:00,11.9,0.5,30.50,SE,135,0.9,0.9,60,0.00,,,0.00,WUHU216HW,2013-01-28 01:33:00,
2013-01-27 20:38:00,11.7,0.5,30.50,SE,135,0.0,1.1,60,0.00,,,0.00,WUHU216HW,2013-01-28 01:38:00,
2013-01-27 20:43:00,11.3,0.5,30.50,SW,225,0.0,1.1,61,0.00,,,0.00,WUHU216HW,2013-01-28 01:43:00,
2013-01-27 20:48:00,11.3,0.7,30.50,SW,225,0.0,0.0,62,0.00,,,0.00,WUHU216HW,2013-01-28 01:48:00,
2013-01-27 20:53:00,11.5,0.9,30.50,SW,225,0.0,0.0,62,0.00,,,0.00,WUHU216HW,2013-01-28 01:53:00,
2013-01-27 20:58:00,11.7,1.5,30.50,West,270,1.1,1.1,63,0.00,,,0.00,WUHU216HW,2013-01-28 01:58:00,
2013-01-27 21:03:00,11.9,1.9,30.50,WSW,248,1.1,1.1,64,0.00,,,0.00,WUHU216HW,2013-01-28 02:03:00,
2013-01-27 21:08:00,11.9,1.9,30.51,West,270,0.7,1.1,64,0.00,,,0.00,WUHU216HW,2013-01-28 02:08:00,
2013-01-27 21:13:00,11.9,1.9,30.51,West,270,0.0,1.3,64,0.00,,,0.00,WUHU216HW,2013-01-28 02:13:00,
2013-01-27 21:18:00,11.9,1.9,30.51,West,270,0.0,1.3,64,0.00,,,0.00,WUHU216HW,2013-01-28 02:18:00,
2013-01-27 21:23:00,11.9,1.9,30.51,West,270,0.0,0.0,64,0.00,,,0.00,WUHU216HW,2013-01-28 02:23:00,
2013-01-27 21:28:00,11.7,1.8,30.51,SW,225,0.4,1.1,64,0.00,,,0.00,WUHU216HW,2013-01-28 02:28:00,
2013-01-27 21:33:00,11.9,1.9,30.51,ESE,113,1.6,1.6,64,0.00,,,0.00,WUHU216HW,2013-01-28 02:33:00,
2013-01-27 21:38:00,11.2,1.3,30.51,SE,135,2.2,3.1,64,0.00,,,0.00,WUHU216HW,2013-01-28 02:38:00,
2013-01-27 21:43:00,10.6,0.7,30.51,ESE,113,2.7,3.1,64,0.00,,,0.00,WUHU216HW,2013-01-28 02:43:00,
2013-01-27 21:48:00,9.9,0.1,30.51,ESE,113,3.4,3.4,64,0.00,,,0.00,WUHU216HW,2013-01-28 02:48:00,
2013-01-27 21:53:00,9.4,-0.4,30.50,ESE,113,2.5,3.4,64,0.00,,,0.00,WUHU216HW,2013-01-28 02:53:00,
2013-01-27 21:58:00,8.6,-1.2,30.51,ESE,113,2.7,3.1,64,0.00,,,0.00,WUHU216HW,2013-01-28 02:58:00,
2013-01-27 22:03:00,8.5,-1.3,30.51,ESE,113,2.5,3.1,64,0.00,,,0.00,WUHU216HW,2013-01-28 03:03:00,
2013-01-27 22:08:00,8.3,-1.5,30.51,ESE,113,3.4,3.4,64,0.00,,,0.00,WUHU216HW,2013-01-28 03:08:00,
2013-01-27 22:13:00,7.9,-1.8,30.51,SE,135,2.5,3.4,64,0.00,,,0.00,WUHU216HW,2013-01-28 03:13:00,
2013-01-27 22:18:00,7.6,-2.1,30.51,SE,135,2.9,3.4,64,0.00,,,0.00,WUHU216HW,2013-01-28 03:18:00,
2013-01-27 22:23:00,7.2,-2.5,30.51,ESE,113,2.5,3.4,64,0.00,,,0.00,WUHU216HW,2013-01-28 03:23:00,
2013-01-27 22:28:00,7.4,-2.0,30.51,SE,135,2.9,3.4,65,0.00,,,0.00,WUHU216HW,2013-01-28 03:28:00,
2013-01-27 22:33:00,7.6,-1.5,30.51,ESE,113,2.5,3.4,66,0.00,,,0.00,WUHU216HW,2013-01-28 03:33:00,
2013-01-27 22:38:00,7.7,-1.3,30.51,ESE,113,2.5,3.4,66,0.00,,,0.00,WUHU216HW,2013-01-28 03:38:00,
2013-01-27 22:43:00,8.1,-0.6,30.50,ESE,113,2.5,2.9,67,0.00,,,0.00,WUHU216HW,2013-01-28 03:43:00,
2013-01-27 22:48:00,8.3,-0.4,30.50,ESE,113,2.5,2.9,67,0.00,,,0.00,WUHU216HW,2013-01-28 03:48:00,
2013-01-27 22:53:00,8.3,-0.4,30.50,ESE,113,2.0,2.5,67,0.00,,,0.00,WUHU216HW,2013-01-28 03:53:00,
2013-01-27 22:58:00,8.1,-0.6,30.50,ESE,113,2.2,2.5,67,0.00,,,0.00,WUHU216HW,2013-01-28 03:58:00,
2013-01-27 23:03:00,8.1,-0.6,30.50,ESE,113,2.2,2.5,67,0.00,,,0.00,WUHU216HW,2013-01-28 04:03:00,
2013-01-27 23:08:00,8.3,-0.4,30.49,ESE,113,1.8,2.5,67,0.00,,,0.00,WUHU216HW,2013-01-28 04:08:00,
2013-01-27 23:13:00,8.3,-0.4,30.49,ESE,113,2.2,2.2,67,0.00,,,0.00,WUHU216HW,2013-01-28 04:13:00,
2013-01-27 23:18:00,8.5,0.0,30.49,SE,135,1.3,2.5,68,0.00,,,0.00,WUHU216HW,2013-01-28 04:18:00,
2013-01-27 23:23:00,8.6,0.2,30.49,ESE,113,0.9,2.5,68,0.00,,,0.00,WUHU216HW,2013-01-28 04:23:00,
2013-01-27 23:28:00,8.6,0.2,30.49,SE,135,1.1,1.8,68,0.00,,,0.00,WUHU216HW,2013-01-28 04:28:00,
2013-01-27 23:33:00,8.6,-0.1,30.49,SE,135,1.3,1.3,67,0.00,,,0.00,WUHU216HW,2013-01-28 04:33:00,
2013-01-27 23:38:00,8.5,-0.3,30.49,SE,135,0.7,1.3,67,0.00,,,0.00,WUHU216HW,2013-01-28 04:38:00,
2013-01-27 23:43:00,8.5,-0.3,30.49,ESE,113,2.2,2.2,67,0.00,,,0.00,WUHU216HW,2013-01-28 04:43:00,
2013-01-27 23:48:00,8.3,-0.4,30.49,SE,135,2.7,2.7,67,0.00,,,0.00,WUHU216HW,2013-01-28 04:48:00,
2013-01-27 23:53:00,8.1,-0.6,30.49,SE,135,2.5,2.9,67,0.00,,,0.00,WUHU216HW,2013-01-28 04:53:00,
2013-01-27 23:58:00,7.9,-0.8,30.49,SSE,158,2.9,2.9,67,0.00,,,0.00,WUHU216HW,2013-01-28 04:58:00,